World > North America > United States > Washington

Seattle, Washington Regional Weather

Lat: 47.61N, Lon: 122.33W
Wx Zone: WAZ558
Feedback

Seattle, WA Regional Weather

Expires:201907212200;;423329
ASUS46 KSEW 212110
RWRWA 

WASHINGTON REGIONAL WEATHER ROUNDUP
NATIONAL WEATHER SERVICE SEATTLE WA
200 PM PDT SUN JUL 21 2019

NOTE:"FAIR" INDICATES FEW OR NO CLOUDS BELOW 12,000 FEET WITH NO 
SIGNIFICANT WEATHER AND/OR OBSTRUCTIONS TO VISIBILITY.


WAZ507-509-555>559-212200-
SEATTLE, TACOMA, EVERETT, AND VICINITY
  
CITY           SKY/WX    TMP DP  RH WIND       PRES   REMARKS
EVERETT        SUNNY     81  51  35 VRB6      29.99F                  
BOEING FIELD   SUNNY     83  47  28 VRB7      29.95F                  
RENTON         SUNNY     83  54  36 N6        29.95F                  
SEATAC AIRPORT SUNNY     85  49  28 W10       29.97F                  
JBLM-MCCHORD   SUNNY     84  58  40 NW8       29.96F                  
PUYALLUP       FAIR      86  48  26 VRB3      29.97F                  
BREMERTON      SUNNY     86  47  25 VRB3      29.97F                  
JBLM-FT LEWIS  SUNNY     84  56  38 W7        29.96F                  
TACOMA NARROWS SUNNY     78  54  43 VRB3      29.96F                  
$$
 

SKY/WX - Weather  TMP - Temperature  DP - Dew Point  RH - Relative Humidity
WIND - Wind Direction/Speed PRES - Barometric Pressure VSB - Visibility
WCI - Wind Chill Index E13G22 Wind - East Wind 13 mph/Gusts of 22 mph